Simultaneous Nadir Overpasses (SNOs) Predictions

Prediction of SNOs between AQUA and METOP-A Satellite Orbit:

Table of predicted SNOs for the next 14.0 days since TLE Epoch: 10/26/2018
Index Date (AQUA) Time (AQUA) Lat,Lon (AQUA) SZA (AQUA ) Date (METOP-A) Time (METOP-A) Lat,Lon (METOP-A) SZA (METOP-A ) Distance(km) Time Diff (sec)
1 10/28/2018 14:35:26 -74.35, 134.22 92.49 10/28/2018 14:34:15 -74.33, 133.01 92.48 36.19 71
2 10/28/2018 15:24:59 74.66, -58.90 87.85 10/28/2018 15:24:49 74.63, -58.88 87.82 3.25 10
3 10/28/2018 16:14:26 -74.70, 108.64 92.10 10/28/2018 16:15:29 -74.70, 108.62 92.11 1.06 63
4 10/31/2018 10:09:41 -74.44,-159.55 91.48 10/31/2018 10:08:29 -74.38,-160.47 91.52 28.48 72
5 10/31/2018 10:59:12 74.65, 7.57 88.76 10/31/2018 10:59:03 74.67, 7.63 88.78 2.73 9
6 10/31/2018 11:48:39 -74.69, 175.12 91.20 10/31/2018 11:49:44 -74.69, 175.01 91.20 3.27 65
7 11/03/2018 05:43:56 -74.48, -93.20 90.54 11/03/2018 05:42:44 -74.42, -93.96 90.59 23.67 72
8 11/03/2018 06:33:26 74.65, 74.02 89.65 11/03/2018 06:33:19 74.66, 74.00 89.66 1.26 7
9 11/03/2018 07:22:54 -74.73,-118.54 90.26 11/03/2018 07:23:59 -74.73,-118.48 90.26 1.80 65
10 11/06/2018 01:18:11 -74.52, -26.87 89.63 11/06/2018 01:16:58 -74.50, -27.33 89.64 13.84 73
11 11/06/2018 02:07:40 74.65, 140.46 90.51 11/06/2018 02:07:35 74.64, 140.37 90.51 2.85 5
12 11/06/2018 02:57:08 -74.72, -52.09 89.40 11/06/2018 02:58:15 -74.72, -52.11 89.41 0.94 67
13 11/08/2018 20:52:25 -74.58, 39.44 88.75 11/08/2018 20:51:12 -74.54, 39.16 88.78 9.24 73
14 11/08/2018 21:41:53 74.66,-153.12 91.35 11/08/2018 21:41:49 74.67,-153.15 91.37 2.07 4




NCC Satellite Simultaneous Nadir Overpasses (SNOs) Prediction Service
